Home > Weather > Wheaton > Past weeks

Flag for USA Past Weather in Wheaton, Illinois, USA — Yesterday and Last 2 Weeks

Now
75 °F

Rain. Mostly cloudy.


Feels Like: 76 °F
Forecast: 67 / 75 °F
Wind: 10 mph from Southwest

Location: Dupage Airport

Current Time: May 27, 2016 at 7:12:59 PM

Latest Report: May 27, 2016 at 5:52 PM


Visibility: 5 mi

Pressure: 29.80 "Hg

Humidity: 79%

Dew Point: 68 °F

Location of WheatonLocation

Past Weather in Wheaton — Graph

°F

Wheaton Temperature Yesterday

Maximum temperature yesterday: 83 °F (at 4:52 PM)
Minimum temperature yesterday: 64 °F (at 2:52 AM)
Average temperature yesterday: 73 °F

High & Low Weather Summary for the Past Weeks

 TemperatureHumidityPressure
High87 °F (May 24, 3:52 PM)94% (May 26, 2:52 AM)30.25 "Hg (May 26, 2:52 AM)
Low35 °F (May 15, 3:52 AM)24% (May 19, 4:52 PM)29.80 "Hg (May 26, 5:52 PM)
Average60 °F59%30.04 "Hg
* Reported May 12 5:52 PM — May 27 5:52 PM, Wheaton, Weather by CustomWeather, © 2016

Note: Actual official high and low records may vary slightly from our data, if they occured in-between our weather recording intervals... More about our weather records

Advertising

Wheaton Weather History for the Previous 24 Hours

Scroll right to see more
 ConditionsComfort  
Time TempWeatherWind HumidityBarometerVisibility
5:52 PM
Fri, May 27
75 °FRain. Mostly cloudy.10 mph79%29.80 "Hg5 mi
4:52 PM72 °FMore clouds than sun.10 mph84%29.81 "Hg10 mi
4:03 PM73 °FHeavy rain. Mostly cloudy.12 mph79%29.84 "Hg2 mi
2:52 PM74 °FLight rain. Broken clouds.7 mph76%29.82 "Hg10 mi
1:52 PM81 °FPartly sunny.21 mph54%29.82 "Hg10 mi
12:52 PM80 °FScattered clouds.13 mph60%29.85 "Hg10 mi
11:52 AM79 °FPartly sunny.17 mph65%29.87 "Hg10 mi
10:52 AM77 °FPassing clouds.15 mph69%29.88 "Hg10 mi
9:52 AM73 °FScattered clouds.10 mph79%29.88 "Hg10 mi
9:04 AM70 °FPassing clouds.7 mph87%29.89 "Hg10 mi
8:52 AM69 °FPartly sunny.9 mph90%29.88 "Hg10 mi
7:52 AM69 °FOvercast.14 mph81%29.88 "Hg10 mi
6:52 AM68 °FOvercast.8 mph87%29.87 "Hg10 mi
5:52 AM67 °FClear.6 mph87%29.85 "Hg10 mi
4:52 AM67 °FPassing clouds.6 mph87%29.87 "Hg10 mi
3:52 AM68 °FClear.6 mph84%29.87 "Hg10 mi
2:52 AM69 °FClear.12 mph87%29.87 "Hg10 mi
1:52 AM71 °FClear.12 mph84%29.88 "Hg10 mi
12:52 AM72 °FPassing clouds.5 mph78%29.86 "Hg10 mi
11:52 PM
Thu, May 26
73 °FClear.10 mph74%29.86 "Hg10 mi
10:52 PM71 °FPassing clouds.6 mph81%29.88 "Hg10 mi
9:52 PM73 °FPassing clouds.3 mph76%29.86 "Hg10 mi
8:52 PM73 °FSunny.No wind76%29.87 "Hg10 mi
7:52 PM77 °FSunny.No wind66%29.84 "Hg10 mi
Weather by CustomWeather, © 2016

See weather overviewHow to use our weather pages